Time,TemperatureF,DewpointF,PressureIn,WindDirection,WindDirectionDegrees,WindSpeedMPH,WindSpeedGustMPH,Humidity,HourlyPrecipIn,Conditions,Clouds,dailyrainin,SoftwareType,DateUTC
2013-03-05 00:01:00,45.0,28.0,29.96,NE,45,0.0,2.0,51,0.00,,,0.01,,2013-03-05 05:01:00,
2013-03-05 00:22:00,45.0,27.0,29.96,NE,47,0.0,2.0,49,0.00,,,0.01,,2013-03-05 05:22:00,
2013-03-05 00:31:00,45.0,27.0,29.96,NE,47,0.0,2.0,49,0.00,,,0.01,,2013-03-05 05:31:00,
2013-03-05 00:42:00,45.0,27.0,29.96,NE,47,0.0,2.0,49,0.00,,,0.01,,2013-03-05 05:42:00,
2013-03-05 00:52:00,45.0,27.0,29.96,North,360,0.0,3.0,50,0.00,,,0.01,,2013-03-05 05:52:00,
2013-03-05 01:01:00,45.0,27.0,29.96,North,360,0.0,3.0,50,0.00,,,0.01,,2013-03-05 06:01:00,
2013-03-05 01:11:00,45.0,27.0,29.96,North,360,0.0,3.0,50,0.00,,,0.01,,2013-03-05 06:11:00,
2013-03-05 01:22:00,45.0,27.0,29.96,NNE,17,0.0,2.0,48,0.00,,,0.01,,2013-03-05 06:22:00,
2013-03-05 01:31:00,45.0,27.0,29.96,NNE,17,0.0,2.0,48,0.00,,,0.01,,2013-03-05 06:31:00,
2013-03-05 01:42:00,45.0,27.0,29.96,NNE,17,0.0,2.0,48,0.00,,,0.01,,2013-03-05 06:42:00,
2013-03-05 01:52:00,45.0,27.0,29.95,NNW,346,0.0,5.0,48,0.00,,,0.01,,2013-03-05 06:52:00,
2013-03-05 02:01:00,45.0,27.0,29.95,NNW,346,0.0,5.0,48,0.00,,,0.01,,2013-03-05 07:01:00,
2013-03-05 02:11:00,45.0,27.0,29.95,NNW,346,0.0,5.0,48,0.00,,,0.01,,2013-03-05 07:11:00,
2013-03-05 02:21:00,44.0,27.0,29.93,NNE,24,1.0,3.0,50,0.00,,,0.01,,2013-03-05 07:21:00,
2013-03-05 02:31:00,44.0,27.0,29.93,NNE,24,1.0,3.0,50,0.00,,,0.01,,2013-03-05 07:31:00,
2013-03-05 02:42:00,44.0,27.0,29.93,NNE,24,1.0,3.0,50,0.00,,,0.01,,2013-03-05 07:42:00,
2013-03-05 02:52:00,44.0,26.0,29.93,NNE,21,1.0,3.0,49,0.00,,,0.01,,2013-03-05 07:52:00,
2013-03-05 03:01:00,44.0,26.0,29.93,NNE,21,1.0,3.0,49,0.00,,,0.01,,2013-03-05 08:01:00,
2013-03-05 03:11:00,44.0,26.0,29.93,NNE,21,1.0,3.0,49,0.00,,,0.01,,2013-03-05 08:11:00,
2013-03-05 03:21:00,44.0,27.0,29.92,NNW,345,0.0,2.0,51,0.00,,,0.01,,2013-03-05 08:21:00,
2013-03-05 03:31:00,44.0,27.0,29.92,NNW,345,0.0,2.0,51,0.00,,,0.01,,2013-03-05 08:31:00,
2013-03-05 03:42:00,44.0,27.0,29.92,NNW,345,0.0,2.0,51,0.00,,,0.01,,2013-03-05 08:42:00,
2013-03-05 03:52:00,44.0,27.0,29.91,NNW,345,0.0,3.0,51,0.00,,,0.01,,2013-03-05 08:52:00,
2013-03-05 04:01:00,44.0,27.0,29.91,NNW,345,0.0,3.0,51,0.00,,,0.01,,2013-03-05 09:01:00,
2013-03-05 04:11:00,44.0,27.0,29.91,NNW,345,0.0,3.0,51,0.00,,,0.01,,2013-03-05 09:11:00,
2013-03-05 04:21:00,44.0,27.0,29.91,NNW,343,0.0,2.0,51,0.00,,,0.01,,2013-03-05 09:21:00,
2013-03-05 04:31:00,44.0,27.0,29.91,NNW,343,0.0,2.0,51,0.00,,,0.01,,2013-03-05 09:31:00,
2013-03-05 04:43:00,44.0,27.0,29.91,NNW,343,0.0,2.0,51,0.00,,,0.01,,2013-03-05 09:43:00,
2013-03-05 04:52:00,44.0,26.0,29.91,NNW,343,0.0,2.0,49,0.00,,,0.01,,2013-03-05 09:52:00,
2013-03-05 05:01:00,44.0,26.0,29.91,NNW,343,0.0,2.0,49,0.00,,,0.01,,2013-03-05 10:01:00,
2013-03-05 05:11:00,44.0,26.0,29.91,NNW,343,0.0,2.0,49,0.00,,,0.01,,2013-03-05 10:11:00,
2013-03-05 05:21:00,44.0,28.0,29.91,NNW,343,1.0,3.0,52,0.00,,,0.01,,2013-03-05 10:21:00,
2013-03-05 05:31:00,44.0,28.0,29.91,NNW,343,1.0,3.0,52,0.00,,,0.01,,2013-03-05 10:31:00,
2013-03-05 05:42:00,44.0,28.0,29.91,NNW,343,1.0,3.0,52,0.00,,,0.01,,2013-03-05 10:42:00,
2013-03-05 05:52:00,44.0,27.0,29.89,NNW,342,0.0,2.0,51,0.00,,,0.01,,2013-03-05 10:52:00,
2013-03-05 06:01:00,44.0,27.0,29.89,NNW,342,0.0,2.0,51,0.00,,,0.01,,2013-03-05 11:01:00,
2013-03-05 06:11:00,44.0,27.0,29.89,NNW,342,0.0,2.0,51,0.00,,,0.01,,2013-03-05 11:11:00,
2013-03-05 06:21:00,44.0,27.0,29.88,ENE,73,0.0,2.0,51,0.00,,,0.01,,2013-03-05 11:21:00,
2013-03-05 06:32:00,44.0,27.0,29.88,ENE,73,0.0,2.0,51,0.00,,,0.01,,2013-03-05 11:32:00,
2013-03-05 06:42:00,44.0,27.0,29.88,ENE,73,0.0,2.0,51,0.00,,,0.01,,2013-03-05 11:42:00,
2013-03-05 06:52:00,44.0,27.0,29.87,ENE,73,0.0,2.0,50,0.00,,,0.01,,2013-03-05 11:52:00,
2013-03-05 07:02:00,44.0,27.0,29.87,ENE,73,0.0,2.0,50,0.00,,,0.01,,2013-03-05 12:02:00,
2013-03-05 07:11:00,44.0,27.0,29.87,ENE,73,0.0,2.0,50,0.00,,,0.01,,2013-03-05 12:11:00,
2013-03-05 07:22:00,44.0,27.0,29.86,ENE,73,0.0,1.0,50,0.00,,,0.01,,2013-03-05 12:22:00,
2013-03-05 07:32:00,44.0,27.0,29.86,ENE,73,0.0,1.0,50,0.00,,,0.01,,2013-03-05 12:32:00,
2013-03-05 07:42:00,44.0,27.0,29.86,ENE,73,0.0,1.0,50,0.00,,,0.01,,2013-03-05 12:42:00,
2013-03-05 07:52:00,44.0,27.0,29.86,ENE,73,0.0,2.0,51,0.00,,,0.01,,2013-03-05 12:52:00,
2013-03-05 08:01:00,44.0,27.0,29.86,ENE,73,0.0,2.0,51,0.00,,,0.01,,2013-03-05 13:01:00,
2013-03-05 08:11:00,44.0,27.0,29.86,ENE,73,0.0,2.0,51,0.00,,,0.01,,2013-03-05 13:11:00,
2013-03-05 08:21:00,45.0,27.0,29.85,North,360,0.0,4.0,50,0.00,,,0.01,,2013-03-05 13:21:00,
2013-03-05 08:31:00,45.0,27.0,29.85,North,360,0.0,4.0,50,0.00,,,0.01,,2013-03-05 13:31:00,
2013-03-05 08:42:00,45.0,27.0,29.85,North,360,0.0,4.0,50,0.00,,,0.01,,2013-03-05 13:42:00,
2013-03-05 08:52:00,45.0,27.0,29.84,North,10,0.0,2.0,49,0.00,,,0.01,,2013-03-05 13:52:00,
2013-03-05 09:02:00,45.0,27.0,29.84,North,10,0.0,2.0,49,0.00,,,0.01,,2013-03-05 14:02:00,
2013-03-05 09:11:00,45.0,27.0,29.84,North,10,0.0,2.0,49,0.00,,,0.01,,2013-03-05 14:11:00,
2013-03-05 09:21:00,44.0,28.0,29.83,NNW,333,0.0,0.0,53,0.00,,,0.01,,2013-03-05 14:21:00,
2013-03-05 09:31:00,44.0,28.0,29.83,NNW,333,0.0,0.0,53,0.00,,,0.01,,2013-03-05 14:31:00,
2013-03-05 09:42:00,44.0,28.0,29.83,NNW,333,0.0,0.0,53,0.00,,,0.01,,2013-03-05 14:42:00,
2013-03-05 09:52:00,44.0,28.0,29.82,NNW,333,0.0,0.0,54,0.00,,,0.01,,2013-03-05 14:52:00,
2013-03-05 10:01:00,44.0,28.0,29.82,NNW,333,0.0,0.0,54,0.00,,,0.01,,2013-03-05 15:01:00,
2013-03-05 10:11:00,44.0,28.0,29.82,NNW,333,0.0,0.0,54,0.00,,,0.01,,2013-03-05 15:11:00,
2013-03-05 10:21:00,45.0,27.0,29.82,NNW,333,0.0,1.0,50,0.00,,,0.01,,2013-03-05 15:21:00,
2013-03-05 10:31:00,45.0,27.0,29.82,NNW,333,0.0,1.0,50,0.00,,,0.01,,2013-03-05 15:31:00,
2013-03-05 10:42:00,45.0,27.0,29.82,NNW,333,0.0,1.0,50,0.00,,,0.01,,2013-03-05 15:42:00,
2013-03-05 10:52:00,45.0,30.0,29.83,NNW,332,0.0,3.0,55,0.00,,,0.01,,2013-03-05 15:52:00,
2013-03-05 11:01:00,45.0,30.0,29.83,NNW,332,0.0,3.0,55,0.00,,,0.01,,2013-03-05 16:01:00,
2013-03-05 11:11:00,45.0,30.0,29.83,NNW,332,0.0,3.0,55,0.00,,,0.01,,2013-03-05 16:11:00,
2013-03-05 11:21:00,44.0,30.0,29.84,NNW,332,0.0,2.0,58,0.00,,,0.01,,2013-03-05 16:21:00,
2013-03-05 11:31:00,44.0,30.0,29.84,NNW,332,0.0,2.0,58,0.00,,,0.01,,2013-03-05 16:31:00,
2013-03-05 11:42:00,44.0,30.0,29.84,NNW,332,0.0,2.0,58,0.00,,,0.01,,2013-03-05 16:42:00,
2013-03-05 11:52:00,44.0,31.0,29.85,NNW,332,0.0,2.0,60,0.00,,,0.01,,2013-03-05 16:52:00,
2013-03-05 12:01:00,44.0,31.0,29.85,NNW,332,0.0,2.0,60,0.00,,,0.01,,2013-03-05 17:01:00,
2013-03-05 12:11:00,44.0,31.0,29.85,NNW,332,0.0,2.0,60,0.00,,,0.01,,2013-03-05 17:11:00,
2013-03-05 12:21:00,44.0,33.0,29.85,NNW,332,0.0,1.0,64,0.00,,,0.00,,2013-03-05 17:21:00,
2013-03-05 12:32:00,44.0,33.0,29.85,NNW,332,0.0,1.0,64,0.00,,,0.00,,2013-03-05 17:32:00,
2013-03-05 12:42:00,44.0,33.0,29.85,NNW,332,0.0,1.0,64,0.00,,,0.00,,2013-03-05 17:42:00,
2013-03-05 12:52:00,45.0,34.0,29.85,NNW,332,0.0,0.0,64,0.00,,,0.00,,2013-03-05 17:52:00,
2013-03-05 13:01:00,45.0,34.0,29.85,NNW,332,0.0,0.0,64,0.00,,,0.00,,2013-03-05 18:01:00,
2013-03-05 13:11:00,45.0,34.0,29.85,NNW,332,0.0,0.0,64,0.00,,,0.00,,2013-03-05 18:11:00,
2013-03-05 13:21:00,46.0,34.0,29.84,NNW,332,0.0,0.0,62,0.00,,,0.00,,2013-03-05 18:21:00,
2013-03-05 13:31:00,46.0,34.0,29.84,NNW,332,0.0,0.0,62,0.00,,,0.00,,2013-03-05 18:31:00,
2013-03-05 13:42:00,46.0,34.0,29.84,NNW,332,0.0,0.0,62,0.00,,,0.00,,2013-03-05 18:42:00,
2013-03-05 13:53:00,47.0,34.0,29.84,NNW,332,0.0,1.0,61,0.00,,,0.00,,2013-03-05 18:53:00,
2013-03-05 14:01:00,47.0,34.0,29.84,NNW,332,0.0,1.0,61,0.00,,,0.00,,2013-03-05 19:01:00,
2013-03-05 14:11:00,47.0,34.0,29.84,NNW,332,0.0,1.0,61,0.00,,,0.00,,2013-03-05 19:11:00,
2013-03-05 14:21:00,50.0,34.0,29.82,NNW,332,0.0,1.0,53,0.00,,,0.00,,2013-03-05 19:21:00,
2013-03-05 14:31:00,50.0,34.0,29.82,NNW,332,0.0,1.0,53,0.00,,,0.00,,2013-03-05 19:31:00,
2013-03-05 14:42:00,50.0,34.0,29.82,NNW,332,0.0,1.0,53,0.00,,,0.00,,2013-03-05 19:42:00,
2013-03-05 14:52:00,50.0,33.0,29.82,NNW,332,0.0,1.0,51,0.00,,,0.00,,2013-03-05 19:52:00,
2013-03-05 15:01:00,50.0,33.0,29.82,NNW,332,0.0,1.0,51,0.00,,,0.00,,2013-03-05 20:01:00,
2013-03-05 15:11:00,49.0,36.0,29.81,West,259,2.0,5.0,60,0.00,,,0.00,,2013-03-05 20:11:00,
2013-03-05 15:21:00,49.0,36.0,29.81,West,259,2.0,5.0,60,0.00,,,0.00,,2013-03-05 20:21:00,
2013-03-05 15:32:00,49.0,36.0,29.81,West,259,2.0,5.0,60,0.00,,,0.00,,2013-03-05 20:32:00,
2013-03-05 15:42:00,49.0,36.0,29.81,West,259,2.0,5.0,60,0.00,,,0.00,,2013-03-05 20:42:00,
2013-03-05 15:52:00,49.0,37.0,29.81,West,260,1.0,4.0,62,0.00,,,0.00,,2013-03-05 20:52:00,
2013-03-05 16:01:00,49.0,37.0,29.81,West,260,1.0,4.0,62,0.00,,,0.00,,2013-03-05 21:01:00,
2013-03-05 16:11:00,49.0,37.0,29.81,West,260,1.0,4.0,62,0.00,,,0.00,,2013-03-05 21:11:00,
2013-03-05 16:21:00,49.0,35.0,29.81,SW,229,1.0,5.0,59,0.00,,,0.00,,2013-03-05 21:21:00,
2013-03-05 16:31:00,49.0,35.0,29.81,SW,229,1.0,5.0,59,0.00,,,0.00,,2013-03-05 21:31:00,
2013-03-05 16:42:00,49.0,35.0,29.81,SW,229,1.0,5.0,59,0.00,,,0.00,,2013-03-05 21:42:00,
2013-03-05 16:52:00,48.0,36.0,29.81,WSW,250,1.0,4.0,64,0.00,,,0.00,,2013-03-05 21:52:00,
2013-03-05 17:01:00,48.0,36.0,29.81,WSW,250,1.0,4.0,64,0.00,,,0.00,,2013-03-05 22:01:00,
2013-03-05 17:11:00,48.0,36.0,29.81,WSW,250,1.0,4.0,64,0.00,,,0.00,,2013-03-05 22:11:00,
2013-03-05 17:21:00,48.0,37.0,29.80,ESE,121,0.0,3.0,66,0.00,,,0.00,,2013-03-05 22:21:00,
2013-03-05 17:31:00,48.0,37.0,29.80,ESE,121,0.0,3.0,66,0.00,,,0.00,,2013-03-05 22:31:00,
2013-03-05 17:42:00,48.0,37.0,29.80,ESE,121,0.0,3.0,66,0.00,,,0.00,,2013-03-05 22:42:00,
2013-03-05 17:52:00,48.0,38.0,29.80,WSW,248,0.0,5.0,67,0.00,,,0.00,,2013-03-05 22:52:00,
2013-03-05 18:01:00,48.0,38.0,29.80,WSW,248,0.0,5.0,67,0.00,,,0.00,,2013-03-05 23:01:00,
2013-03-05 18:11:00,48.0,38.0,29.80,WSW,248,0.0,5.0,67,0.00,,,0.00,,2013-03-05 23:11:00,
2013-03-05 18:21:00,48.0,38.0,29.78,West,267,0.0,2.0,67,0.00,,,0.00,,2013-03-05 23:21:00,
2013-03-05 18:32:00,48.0,38.0,29.78,West,267,0.0,2.0,67,0.00,,,0.00,,2013-03-05 23:32:00,
2013-03-05 18:42:00,48.0,38.0,29.78,West,267,0.0,2.0,67,0.00,,,0.00,,2013-03-05 23:42:00,
2013-03-05 18:52:00,48.0,38.0,29.79,West,267,0.0,0.0,69,0.00,,,0.00,,2013-03-05 23:52:00,
2013-03-05 19:01:00,48.0,38.0,29.79,West,267,0.0,0.0,69,0.00,,,0.00,,2013-03-06 00:01:00,
2013-03-05 19:11:00,48.0,38.0,29.79,West,267,0.0,0.0,69,0.00,,,0.00,,2013-03-06 00:11:00,
2013-03-05 19:21:00,48.0,39.0,29.79,West,267,0.0,1.0,71,0.00,,,0.00,,2013-03-06 00:21:00,
2013-03-05 19:32:00,48.0,39.0,29.79,West,267,0.0,1.0,71,0.00,,,0.00,,2013-03-06 00:32:00,
2013-03-05 19:42:00,48.0,39.0,29.79,West,267,0.0,1.0,71,0.00,,,0.00,,2013-03-06 00:42:00,
2013-03-05 19:52:00,48.0,39.0,29.79,West,267,0.0,1.0,72,0.00,,,0.00,,2013-03-06 00:52:00,
2013-03-05 20:01:00,48.0,39.0,29.79,West,267,0.0,1.0,72,0.00,,,0.00,,2013-03-06 01:01:00,
2013-03-05 20:11:00,48.0,39.0,29.79,West,267,0.0,1.0,72,0.00,,,0.00,,2013-03-06 01:11:00,
2013-03-05 20:21:00,47.0,39.0,29.79,West,267,0.0,0.0,73,0.00,,,0.00,,2013-03-06 01:21:00,
2013-03-05 20:31:00,47.0,39.0,29.79,West,267,0.0,0.0,73,0.00,,,0.00,,2013-03-06 01:31:00,
2013-03-05 20:42:00,47.0,39.0,29.79,West,267,0.0,0.0,73,0.00,,,0.00,,2013-03-06 01:42:00,
2013-03-05 20:52:00,47.0,39.0,29.78,West,267,0.0,0.0,74,0.00,,,0.00,,2013-03-06 01:52:00,
2013-03-05 21:01:00,47.0,39.0,29.78,West,267,0.0,0.0,74,0.00,,,0.00,,2013-03-06 02:01:00,
2013-03-05 21:11:00,47.0,39.0,29.78,West,267,0.0,0.0,74,0.00,,,0.00,,2013-03-06 02:11:00,
2013-03-05 21:21:00,46.0,39.0,29.79,West,267,0.0,0.0,76,0.00,,,0.00,,2013-03-06 02:21:00,
2013-03-05 21:31:00,46.0,39.0,29.79,West,267,0.0,0.0,76,0.00,,,0.00,,2013-03-06 02:31:00,
2013-03-05 21:42:00,46.0,39.0,29.79,West,267,0.0,0.0,76,0.00,,,0.00,,2013-03-06 02:42:00,
2013-03-05 21:52:00,46.0,40.0,29.79,West,267,1.0,3.0,78,0.00,,,0.00,,2013-03-06 02:52:00,
2013-03-05 22:01:00,46.0,40.0,29.79,West,267,1.0,3.0,78,0.00,,,0.00,,2013-03-06 03:01:00,
2013-03-05 22:11:00,46.0,40.0,29.79,West,267,1.0,3.0,78,0.00,,,0.00,,2013-03-06 03:11:00,
2013-03-05 22:21:00,45.0,39.0,29.79,West,267,0.0,0.0,80,0.00,,,0.00,,2013-03-06 03:21:00,
2013-03-05 22:31:00,45.0,39.0,29.79,West,267,0.0,0.0,80,0.00,,,0.00,,2013-03-06 03:31:00,
2013-03-05 22:42:00,45.0,39.0,29.79,West,267,0.0,0.0,80,0.00,,,0.00,,2013-03-06 03:42:00,
2013-03-05 22:52:00,45.0,40.0,29.78,West,267,0.0,0.0,81,0.00,,,0.00,,2013-03-06 03:52:00,
2013-03-05 23:01:00,45.0,40.0,29.78,West,267,0.0,0.0,81,0.00,,,0.00,,2013-03-06 04:01:00,
2013-03-05 23:11:00,45.0,40.0,29.78,West,267,0.0,0.0,81,0.00,,,0.00,,2013-03-06 04:11:00,
2013-03-05 23:21:00,45.0,40.0,29.78,West,267,0.0,0.0,81,0.00,,,0.00,,2013-03-06 04:21:00,
2013-03-05 23:31:00,45.0,40.0,29.78,West,267,0.0,0.0,81,0.00,,,0.00,,2013-03-06 04:31:00,
2013-03-05 23:52:00,44.0,39.0,29.77,West,267,0.0,0.0,83,0.00,,,0.00,,2013-03-06 04:52:00,